Home   Weather   Ceuta   Past weeks

Flag for Spain Past Weather in Ceuta, Ceuta, Spain — Yesterday and Last 2 Weeks

68 °F

Passing clouds.

Feels Like: 68 °F
Forecast: 68 / 71 °F
Wind: 17 mph from East

Location: Gibraltar Airport

Current Time: Oct 28, 2016 at 4:38:37 AM

Latest Report: Oct 28, 2016 at 3:50 AM

Visibility: 6 mi

Pressure: 30.30 "Hg

Humidity: 94%

Dew Point: 66 °F

Location of CeutaLocation

Past Weather in Ceuta — Graph


Ceuta Temperature Yesterday

Maximum temperature yesterday: 72 °F (at 3:50 PM)
Minimum temperature yesterday: 68 °F (at 2:50 AM)
Average temperature yesterday: 70 °F

High & Low Weather Summary for the Past Weeks

High73 °F (Oct 17, 2:50 PM)100% (Oct 13, 3:50 AM)30.30 "Hg (Oct 13, 3:50 AM)
Low57 °F (Oct 15, 8:50 AM)50% (Oct 14, 4:50 PM)29.62 "Hg (Oct 13, 4:50 AM)
Average67 °F85%29.97 "Hg
* Reported Oct 13 2:50 AM — Oct 28 2:50 AM, Ceuta, Weather by CustomWeather, © 2016

Note: Actual official high and low records may vary slightly from our data, if they occured in-between our weather recording intervals... More about our weather records


Ceuta Weather History for the Previous 24 Hours

Scroll right to see more
Time TempWeatherWind HumidityBarometerVisibility
2:50 AM
Fri, Oct 28
68 °FPassing clouds.22 mph94%30.30 "Hg6 mi
1:50 AM68 °FPassing clouds.22 mph94%30.30 "Hg6 mi
12:50 AM68 °FPartly cloudy.24 mph94%30.30 "Hg6 mi
11:50 PM
Thu, Oct 27
70 °FPassing clouds.24 mph88%30.30 "Hg6 mi
10:50 PM70 °FPassing clouds.18 mph88%30.27 "Hg5 mi
9:50 PM70 °FPassing clouds.17 mph88%30.27 "Hg6 mi
8:50 PM70 °FPassing clouds.16 mph88%30.24 "Hg6 mi
7:50 PM70 °FPassing clouds.16 mph88%30.24 "Hg5 mi
6:50 PM70 °FPartly sunny.17 mph88%30.24 "Hg5 mi
5:50 PM70 °FPartly sunny.16 mph88%30.24 "Hg5 mi
4:50 PM72 °FPartly sunny.16 mph83%30.24 "Hg5 mi
3:50 PM72 °FPartly sunny.10 mph78%30.24 "Hg6 mi
2:50 PM70 °FPartly sunny.16 mph88%30.27 "Hg5 mi
1:50 PM70 °FPartly sunny.20 mph88%30.27 "Hg6 mi
11:50 AM70 °FBroken clouds.15 mph94%30.27 "Hg5 mi
10:50 AM70 °FBroken clouds.16 mph94%30.24 "Hg4 mi
9:50 AM68 °FBroken clouds.15 mph100%30.24 "Hg4 mi
8:50 AM70 °FBroken clouds.12 mph94%30.21 "Hg5 mi
7:50 AM70 °FPartly cloudy.13 mph88%30.18 "Hg5 mi
6:50 AM70 °FPartly cloudy.13 mph94%30.18 "Hg5 mi
5:50 AM70 °FPassing clouds.17 mph94%30.15 "Hg5 mi
4:50 AM70 °FPassing clouds.16 mph88%30.15 "Hg6 mi
Weather by CustomWeather, © 2016

See weather overviewHow to use our weather pages